KB9ZI Weather Reports


Display with metric or nautical units.
time (UTC)temp
F
wind
direction
speed
MPH
gust
MPH
rain 1hr
in
rain 24hr
in
rain mn
in
humidity
%
barometer
mb
20260502150326 54 227 0.0 9.0 0.00 0.00 0.00 53 1018.2
20260502150127 54 266 0.0 9.0 0.00 0.00 0.00 52 1018.2
20260502150104 53 264 0.0 9.0 0.00 0.00 0.00 52 1018.2
20260502140117 49 254 0.0 7.0 0.00 0.00 0.00 60 1018.6
20260502130412 43 254 0.0 4.0 0.00 0.00 0.00 69 1018.7
20260502130211 43 228 0.0 5.0 0.00 0.00 0.00 69 1018.8
20260502123812 41 281 0.0 7.0 0.00 0.00 0.00 69 1018.8
20260502123806 41 241 0.0 6.0 0.00 0.00 0.00 69 1018.7
20260502123739 41 281 0.0 7.0 0.00 0.00 0.00 69 1018.8
20260502123446 41 257 0.0 7.0 0.00 0.00 0.00 70 1018.7
20260502123305 40 258 0.0 7.0 0.00 0.00 0.00 70 1018.7
20260502123246 40 214 0.0 7.0 0.00 0.00 0.00 70 1018.7
20260502122949 40 238 0.0 7.0 0.00 0.00 0.00 70 1018.7
20260502122750 40 245 0.0 7.0 0.00 0.00 0.00 70 1018.7
20260502122547 40 230 0.0 5.0 0.00 0.00 0.00 71 1018.6
20260502122509 40 230 0.0 5.0 0.00 0.00 0.00 71 1018.6
20260502122341 40 224 0.0 5.0 0.00 0.00 0.00 70 1018.7
20260502122305 40 258 0.0 5.0 0.00 0.00 0.00 70 1018.6
20260502122244 40 224 0.0 5.0 0.00 0.00 0.00 71 1018.7
20260502121941 40 258 0.0 5.0 0.00 0.00 0.00 70 1018.6
20260502121742 40 258 0.0 5.0 0.00 0.00 0.00 70 1018.7
20260502121542 40 255 0.0 5.0 0.00 0.00 0.00 71 1018.6
20260502121508 40 250 0.0 4.0 0.00 0.00 0.00 71 1018.6
20260502121440 40 233 0.0 5.0 0.00 0.00 0.00 71 1018.6
20260502121308 39 223 0.0 5.0 0.00 0.00 0.00 71 1018.7
20260502121243 39 244 0.0 5.0 0.00 0.00 0.00 71 1018.6
20260502120933 39 223 0.0 5.0 0.00 0.00 0.00 71 1018.7
20260502120733 39 206 0.0 5.0 0.00 0.00 0.00 71 1018.6
20260502120537 39 185 0.0 5.0 0.00 0.00 0.00 71 1018.6
20260502120507 39 171 0.0 5.0 0.00 0.00 0.00 71 1018.6
20260502120335 39 207 0.0 4.0 0.00 0.00 0.00 72 1018.6
20260502120304 38 252 0.0 4.0 0.00 0.00 0.00 72 1018.6
20260502120242 39 241 0.0 4.0 0.00 0.00 0.00 72 1018.7
20260502115810 38 252 0.0 4.0 0.00 0.00 0.00 72 1018.7
20260502115511 38 230 0.0 4.0 0.00 0.00 0.00 72 1018.6
20260502115312 38 230 0.0 4.0 0.00 0.00 0.00 72 1018.6
20260502115111 38 234 0.0 2.0 0.00 0.00 0.00 72 1018.6
20260502115014 38 234 0.0 2.0 0.00 0.00 0.00 72 1018.4
20260502114911 38 234 0.0 2.0 0.00 0.00 0.00 72 1018.4
20260502114711 38 234 0.0 2.0 0.00 0.00 0.00 71 1018.6
20260502114514 38 234 0.0 5.0 0.00 0.00 0.00 72 1018.4
20260502114312 38 234 0.0 5.0 0.00 0.00 0.00 72 1018.4
20260502114112 38 234 0.0 5.0 0.00 0.00 0.00 72 1018.4
20260502114019 38 234 0.0 5.0 0.00 0.00 0.00 72 1018.4
20260502114010 38 234 0.0 5.0 0.00 0.00 0.00 72 1018.3
20260502113633 38 234 0.0 5.0 0.00 0.00 0.00 72 1018.4
20260502113511 38 238 0.0 4.0 0.00 0.00 0.00 72 1018.4
20260502113437 38 238 0.0 4.0 0.00 0.00 0.00 72 1018.4
20260502113232 38 243 0.0 3.0 0.00 0.00 0.00 72 1018.3
20260502113007 38 243 0.0 3.0 0.00 0.00 0.00 72 1018.3
20260502112835 38 243 0.0 3.0 0.00 0.00 0.00 72 1018.3
20260502112635 38 244 0.0 3.0 0.00 0.00 0.00 72 1018.3
20260502112507 38 244 0.0 2.0 0.00 0.00 0.00 72 1018.3
20260502112418 38 244 0.0 2.0 0.00 0.00 0.00 72 1018.3
20260502112308 38 244 0.0 2.0 0.00 0.00 0.00 72 1018.3
20260502112009 38 244 0.0 3.0 0.00 0.00 0.00 72 1018.3
20260502111808 38 244 0.0 3.0 0.00 0.00 0.00 72 1018.3
20260502111611 38 244 0.0 3.0 0.00 0.00 0.00 72 1018.3
20260502111511 38 244 0.0 3.0 0.00 0.00 0.00 72 1018.2
20260502111412 38 243 0.0 3.0 0.00 0.00 0.00 72 1018.3
20260502111211 38 243 0.0 4.0 0.00 0.00 0.00 71 1018.3
20260502111011 38 243 0.0 4.0 0.00 0.00 0.00 71 1018.3
20260502110811 38 243 0.0 4.0 0.00 0.00 0.00 71 1018.3
20260502110711 38 243 0.0 4.0 0.00 0.00 0.00 71 1018.4
20260502110510 38 243 0.0 4.0 0.00 0.00 0.00 71 1018.4
20260502110412 38 243 0.0 4.0 0.00 0.00 0.00 71 1018.3
20260502110302 38 243 0.0 3.0 0.00 0.00 0.00 70 1018.2
20260502110253 38 243 0.0 3.0 0.00 0.00 0.00 71 1018.3
20260502110224 38 243 0.0 3.0 0.00 0.00 0.00 70 1018.2
20260502105811 38 243 0.0 3.0 0.00 0.00 0.00 71 1018.3
20260502105611 38 243 0.0 3.0 0.00 0.00 0.00 71 1018.3
20260502105510 38 243 0.0 3.0 0.00 0.00 0.00 71 1018.3
20260502105411 38 243 0.0 3.0 0.00 0.00 0.00 71 1018.4
20260502105350 38 243 0.0 3.0 0.00 0.00 0.00 70 1018.2
20260502105257 38 243 0.0 3.0 0.00 0.00 0.00 70 1018.3
20260502105222 38 243 0.0 3.0 0.00 0.00 0.00 70 1018.3
20260502104810 38 243 0.0 3.0 0.00 0.00 0.00 70 1018.3
20260502104609 38 243 0.0 3.0 0.00 0.00 0.00 70 1018.3
20260502104508 38 243 0.0 3.0 0.00 0.00 0.00 70 1018.3
20260502104410 38 243 0.0 3.0 0.00 0.00 0.00 70 1018.3
20260502104300 38 228 0.0 3.0 0.00 0.00 0.00 70 1018.3
20260502104251 38 243 0.0 3.0 0.00 0.00 0.00 70 1018.4
20260502104222 38 228 0.0 3.0 0.00 0.00 0.00 70 1018.3
20260502103811 38 230 0.0 3.0 0.00 0.00 0.00 70 1018.4
20260502103711 38 230 0.0 3.0 0.00 0.00 0.00 70 1018.3
20260502103510 38 230 0.0 3.0 0.00 0.00 0.00 70 1018.2
20260502103411 38 230 0.0 3.0 0.00 0.00 0.00 70 1018.3
20260502103211 38 230 0.0 3.0 0.00 0.00 0.00 70 1018.3
20260502103011 38 224 0.0 3.0 0.00 0.00 0.00 69 1018.3
20260502102812 39 224 0.0 3.0 0.00 0.00 0.00 69 1018.3
20260502102611 39 224 0.0 4.0 0.00 0.00 0.00 69 1018.3
20260502102511 39 224 0.0 4.0 0.00 0.00 0.00 69 1018.3
20260502102411 39 224 0.0 4.0 0.00 0.00 0.00 69 1018.3
20260502102305 39 224 0.0 4.0 0.00 0.00 0.00 69 1018.3
20260502102247 39 224 0.0 4.0 0.00 0.00 0.00 69 1018.3
20260502101915 39 224 0.0 3.0 0.00 0.00 0.00 69 1018.3
20260502101608 39 221 0.0 4.0 0.00 0.00 0.00 68 1018.3
20260502101506 39 221 0.0 4.0 0.00 0.00 0.00 68 1018.3
20260502101358 39 221 0.0 4.0 0.00 0.00 0.00 68 1018.3
20260502101240 39 221 0.0 4.0 0.00 0.00 0.00 68 1018.3
20260502101232 39 221 0.0 4.0 0.00 0.00 0.00 68 1018.3
20260502100935 39 221 0.0 4.0 0.00 0.00 0.00 68 1018.3
20260502100704 39 221 0.0 2.0 0.00 0.00 0.00 68 1018.3
20260502100502 39 221 0.0 3.0 0.00 0.00 0.00 68 1018.3
20260502100326 39 221 0.0 3.0 0.00 0.00 0.00 68 1018.3
20260502100306 39 221 0.0 3.0 0.00 0.00 0.00 68 1018.3
20260502100244 39 221 0.0 3.0 0.00 0.00 0.00 68 1018.3
20260502091439 39 240 0.0 3.0 0.00 0.00 0.00 68 1018.2
20260502091356 39 240 0.0 3.0 0.00 0.00 0.00 68 1018.2
20260502091243 39 240 0.0 2.0 0.00 0.00 0.00 68 1018.3
20260502091227 39 240 0.0 3.0 0.00 0.00 0.00 69 1018.2
20260502091158 39 240 0.0 2.0 0.00 0.00 0.00 68 1018.2
20260502090755 39 240 0.0 2.0 0.00 0.00 0.00 67 1018.2
20260502090601 39 240 0.0 2.0 0.00 0.00 0.00 67 1018.2
20260502090439 39 240 0.0 2.0 0.00 0.00 0.00 67 1018.2
20260502090338 39 240 0.0 2.0 0.00 0.00 0.00 67 1018.2
20260502090227 40 240 0.0 2.0 0.00 0.00 0.00 65 1018.2
20260502090214 40 240 0.0 2.0 0.00 0.00 0.00 65 1018.2
20260502071516 41 247 0.0 2.0 0.00 0.00 0.00 63 1018.4
20260502071304 40 247 0.0 2.0 0.00 0.00 0.00 64 1018.6
20260502071204 40 247 0.0 2.0 0.00 0.00 0.00 64 1018.4
20260502071057 40 247 0.0 2.0 0.00 0.00 0.00 64 1018.4
20260502071033 40 247 0.0 2.0 0.00 0.00 0.00 64 1018.4
20260502070702 40 247 0.0 2.0 0.00 0.00 0.00 64 1018.4
20260502070511 40 247 0.0 2.0 0.00 0.00 0.00 64 1018.4
20260502070307 40 247 0.0 2.0 0.00 0.00 0.00 65 1018.6
20260502070055 40 247 0.0 2.0 0.00 0.00 0.00 65 1018.6
20260502065848 40 247 0.0 2.0 0.00 0.00 0.00 65 1018.6
20260502065730 40 247 0.0 2.0 0.00 0.00 0.00 66 1018.4
20260502065647 40 247 0.0 2.0 0.00 0.00 0.00 66 1018.6
20260502065449 40 247 0.0 2.0 0.00 0.00 0.00 67 1018.6
20260502065249 40 247 0.0 2.0 0.00 0.00 0.00 67 1018.6
20260502065232 40 247 0.0 2.0 0.00 0.00 0.00 68 1018.6
20260502065048 39 247 0.0 2.0 0.00 0.00 0.00 68 1018.6
20260502064843 40 247 0.0 2.0 0.00 0.00 0.00 70 1018.6
20260502064733 40 247 0.0 2.0 0.00 0.00 0.00 69 1018.6
20260502064646 40 247 0.0 2.0 0.00 0.00 0.00 69 1018.7
20260502064545 40 247 0.0 2.0 0.00 0.00 0.00 68 1018.7
20260502064230 40 247 0.0 0.0 0.00 0.00 0.00 68 1018.6
20260502064037 39 247 0.0 0.0 0.00 0.00 0.00 68 1018.7
20260502063836 40 247 0.0 0.0 0.00 0.00 0.00 68 1018.7
20260502063728 40 247 0.0 0.0 0.00 0.00 0.00 68 1018.7
20260502063637 40 247 0.0 0.0 0.00 0.00 0.00 68 1018.8
20260502063435 40 247 0.0 0.0 0.00 0.00 0.00 68 1018.7
20260502063224 40 247 0.0 0.0 0.00 0.00 0.00 68 1018.7
20260502063030 40 247 0.0 0.0 0.00 0.00 0.00 68 1018.7
20260502062928 39 247 0.0 0.0 0.00 0.00 0.00 68 1018.8
20260502062716 39 247 0.0 0.0 0.00 0.00 0.00 69 1018.7
20260502062631 39 247 0.0 0.0 0.00 0.00 0.00 69 1018.7
20260502062439 39 247 0.0 0.0 0.00 0.00 0.00 72 1018.7
20260502062209 39 247 0.0 0.0 0.00 0.00 0.00 72 1018.7
20260502062035 39 247 0.0 0.0 0.00 0.00 0.00 72 1018.7
20260502061834 39 247 0.0 0.0 0.00 0.00 0.00 72 1018.7
20260502061709 39 247 0.0 0.0 0.00 0.00 0.00 72 1018.7
20260502061628 39 247 0.0 0.0 0.00 0.00 0.00 72 1018.8
20260502061429 39 247 0.0 0.0 0.00 0.00 0.00 72 1018.8
20260502061209 39 247 0.0 0.0 0.00 0.00 0.00 73 1018.7
20260502061028 39 247 0.0 0.0 0.00 0.00 0.00 73 1018.7
20260502060827 38 247 0.0 0.0 0.00 0.00 0.00 73 1018.8
20260502060722 38 247 0.0 0.0 0.00 0.00 0.00 73 1018.7
20260502060708 38 247 0.0 0.0 0.00 0.00 0.00 73 1018.7
20260502060428 38 247 0.0 0.0 0.00 0.00 0.00 74 1018.8
20260502060207 38 247 0.0 0.0 0.00 0.00 0.00 74 1018.7
20260502060020 38 247 0.0 0.0 0.00 0.00 0.00 74 1018.8
20260502055817 38 247 0.0 0.0 0.00 0.00 0.00 73 1018.8
20260502055706 38 247 0.0 0.0 0.00 0.00 0.00 73 1018.8
20260502055617 39 247 0.0 0.0 0.00 0.00 0.00 73 1018.8
20260502055418 39 247 0.0 0.0 0.00 0.00 0.00 73 1018.8
20260502055205 39 247 0.0 0.0 0.00 0.00 0.00 72 1018.7
20260502055110 39 247 0.0 0.0 0.00 0.00 0.00 72 1018.7
20260502054814 39 247 0.0 0.0 0.00 0.00 0.00 72 1018.7
20260502054707 39 247 0.0 0.0 0.00 0.00 0.00 72 1018.7
20260502054614 39 247 0.0 0.0 0.00 0.00 0.00 72 1018.7
20260502054506 39 247 0.0 0.0 0.00 0.00 0.00 71 1018.8
20260502054449 39 247 0.0 0.0 0.00 0.00 0.00 72 1018.7
20260502054418 39 247 0.0 0.0 0.00 0.00 0.00 71 1018.8
20260502054010 39 247 0.0 0.0 0.00 0.00 0.00 71 1018.7
20260502053810 39 247 0.0 0.0 0.00 0.00 0.00 71 1018.8
20260502053702 39 247 0.0 0.0 0.00 0.00 0.00 71 1018.9
20260502053610 39 247 0.0 0.0 0.00 0.00 0.00 71 1018.9
20260502053509 39 247 0.0 0.0 0.00 0.00 0.00 71 1018.8
20260502053203 39 247 0.0 0.0 0.00 0.00 0.00 70 1018.7
20260502053010 40 247 0.0 0.0 0.00 0.00 0.00 70 1018.8
20260502052810 40 247 0.0 0.0 0.00 0.00 0.00 70 1018.7
20260502052707 40 247 0.0 0.0 0.00 0.00 0.00 70 1018.7
20260502052703 40 247 0.0 0.0 0.00 0.00 0.00 70 1018.7
20260502052408 40 247 0.0 0.0 0.00 0.00 0.00 70 1018.7
20260502052203 40 247 0.0 0.0 0.00 0.00 0.00 70 1018.7
20260502052006 40 247 0.0 0.0 0.00 0.00 0.00 69 1018.7
20260502051806 40 247 0.0 0.0 0.00 0.00 0.00 68 1018.8
20260502051703 40 247 0.0 0.0 0.00 0.00 0.00 68 1018.9
20260502051607 40 247 0.0 0.0 0.00 0.00 0.00 68 1018.8
20260502051409 40 247 0.0 0.0 0.00 0.00 0.00 67 1018.8
20260502051207 40 247 0.0 0.0 0.00 0.00 0.00 67 1018.7
20260502051036 40 247 0.0 0.0 0.00 0.00 0.00 67 1018.8
20260502050735 40 247 0.0 0.0 0.00 0.00 0.00 67 1018.8
20260502050630 40 247 0.0 0.0 0.00 0.00 0.00 67 1018.7
20260502050534 40 247 0.0 0.0 0.00 0.00 0.00 67 1018.7
20260502050334 40 247 0.0 0.0 0.00 0.00 0.00 67 1018.8
20260502050136 40 247 0.0 0.0 0.00 0.00 0.00 66 1018.7
20260502045935 40 247 0.0 0.0 0.00 0.00 0.00 66 1018.7
20260502045735 40 247 0.0 0.0 0.00 0.00 0.00 66 1018.7
20260502045634 40 247 0.0 0.0 0.00 0.00 0.00 66 1018.6
20260502045535 40 247 0.0 0.0 0.00 0.00 0.00 66 1018.6
20260502045455 40 247 0.0 0.0 0.00 0.00 0.00 66 1018.7
20260502045408 40 247 0.0 0.0 0.00 0.00 0.00 66 1018.7
20260502045326 40 247 0.0 0.0 0.00 0.00 0.00 66 1018.7
20260502044913 40 247 0.0 0.0 0.00 0.00 0.00 66 1018.7
20260502044714 40 247 0.0 0.0 0.00 0.00 0.00 67 1018.7
20260502044619 40 247 0.0 0.0 0.00 0.00 0.00 68 1018.6
20260502044612 40 247 0.0 0.0 0.00 0.00 0.00 67 1018.7
20260502044407 40 247 0.0 0.0 0.00 0.00 0.00 69 1018.7
20260502044355 40 247 0.0 0.0 0.00 0.00 0.00 69 1018.6
20260502044324 40 247 0.0 0.0 0.00 0.00 0.00 69 1018.7
20260502043913 40 247 0.0 0.0 0.00 0.00 0.00 68 1018.7
20260502043715 41 247 0.0 0.0 0.00 0.00 0.00 68 1018.7
20260502043613 41 247 0.0 0.0 0.00 0.00 0.00 68 1018.7
20260502043513 40 247 0.0 0.0 0.00 0.00 0.00 68 1018.7
20260502043408 41 247 0.0 0.0 0.00 0.00 0.00 66 1018.4
20260502043355 41 247 0.0 0.0 0.00 0.00 0.00 67 1018.6
20260502043324 41 247 0.0 0.0 0.00 0.00 0.00 66 1018.4
20260502043016 41 247 0.0 0.0 0.00 0.00 0.00 65 1018.6
20260502042714 41 247 0.0 0.0 0.00 0.00 0.00 64 1018.6
20260502042613 41 247 0.0 0.0 0.00 0.00 0.00 64 1018.6
20260502042513 41 247 0.0 0.0 0.00 0.00 0.00 64 1018.6
20260502042313 41 247 0.0 0.0 0.00 0.00 0.00 64 1018.6
20260502042114 41 247 0.0 0.0 0.00 0.00 0.00 64 1018.6
20260502041913 41 247 0.0 0.0 0.00 0.00 0.00 64 1018.6
20260502041713 41 247 0.0 0.0 0.00 0.00 0.00 64 1018.6
20260502041612 41 247 0.0 0.0 0.00 0.00 0.00 64 1018.7
20260502041513 41 247 0.0 0.0 0.00 0.00 0.00 63 1018.4
20260502041414 41 247 0.0 0.0 0.00 0.00 0.00 63 1018.6
20260502041111 41 247 0.0 0.0 0.00 0.00 0.00 64 1018.6
20260502040907 41 247 0.0 0.0 0.00 0.00 0.00 65 1018.7
20260502040705 41 247 0.0 0.0 0.00 0.00 0.00 65 1018.6
20260502040611 41 247 0.0 0.0 0.00 0.00 0.00 66 1018.6
20260502040601 41 247 0.0 0.0 0.00 0.00 0.00 66 1018.6
20260502040305 41 247 0.0 1.0 0.00 0.00 0.00 67 1018.7
20260502040109 41 247 0.0 1.0 0.00 0.00 0.00 67 1018.7
20260502040044 42 247 0.0 1.0 0.00 0.00 0.00 67 1018.7
20260502035845 42 247 0.0 1.0 0.00 0.00 0.00 68 1018.7
20260502035640 42 247 0.0 1.0 0.00 0.00 0.00 67 1018.7
20260502035608 42 247 0.0 1.0 0.00 0.00 0.00 68 1018.7
20260502035436 42 247 0.0 1.0 0.00 0.00 0.00 67 1018.7
20260502035237 42 247 0.0 1.0 0.00 0.00 0.00 67 1018.6
20260502035109 42 247 0.0 1.0 0.00 0.00 0.00 66 1018.6
20260502035037 42 247 0.0 1.0 0.00 0.00 0.00 66 1018.6
20260502034937 42 247 0.0 1.0 0.00 0.00 0.00 64 1018.6
20260502034612 42 247 0.0 1.0 0.00 0.00 0.00 62 1018.6
20260502034431 42 247 0.0 1.0 0.00 0.00 0.00 62 1018.7
20260502034233 42 247 0.0 1.0 0.00 0.00 0.00 62 1018.6
20260502034111 42 247 0.0 1.0 0.00 0.00 0.00 62 1018.7
20260502034032 42 247 0.0 1.0 0.00 0.00 0.00 62 1018.8
20260502033833 42 247 0.0 1.0 0.00 0.00 0.00 62 1018.6
20260502033611 42 247 0.0 1.0 0.00 0.00 0.00 63 1018.7
20260502033412 42 247 0.0 1.0 0.00 0.00 0.00 64 1018.8
20260502033211 42 247 0.0 1.0 0.00 0.00 0.00 65 1018.8
20260502033110 42 247 0.0 1.0 0.00 0.00 0.00 65 1018.8
20260502033011 42 247 0.0 1.0 0.00 0.00 0.00 64 1018.8
20260502032811 42 247 0.0 1.0 0.00 0.00 0.00 64 1018.8
20260502032610 43 247 0.0 1.0 0.00 0.00 0.00 64 1018.8
20260502032413 43 247 0.0 1.0 0.00 0.00 0.00 65 1018.8
20260502032314 43 247 0.0 1.0 0.00 0.00 0.00 65 1018.8
20260502032111 43 247 0.0 1.0 0.00 0.00 0.00 65 1018.8
20260502032013 43 247 0.0 1.0 0.00 0.00 0.00 65 1018.8
20260502031814 43 247 0.0 1.0 0.00 0.00 0.00 65 1018.8
20260502031613 43 247 0.0 1.0 0.00 0.00 0.00 65 1018.8
20260502031413 43 247 0.0 1.0 0.00 0.00 0.00 65 1018.8
20260502031214 43 247 0.0 1.0 0.00 0.00 0.00 64 1018.8
20260502031112 43 247 0.0 1.0 0.00 0.00 0.00 63 1018.8
20260502031015 43 247 0.0 1.0 0.00 0.00 0.00 63 1018.8
20260502030814 43 247 0.0 1.0 0.00 0.00 0.00 64 1018.7
20260502030719 43 247 0.0 1.0 0.00 0.00 0.00 65 1018.7
20260502030613 43 247 0.0 1.0 0.00 0.00 0.00 65 1018.7
20260502030413 43 247 0.0 1.0 0.00 0.00 0.00 65 1018.7
20260502030214 43 247 0.0 1.0 0.00 0.00 0.00 65 1018.8
20260502030117 43 247 0.0 1.0 0.00 0.00 0.00 64 1018.8
20260502030013 43 247 0.0 0.0 0.00 0.00 0.00 65 1018.8
20260502025814 43 247 0.0 1.0 0.00 0.00 0.00 65 1018.8
20260502025613 43 247 0.0 1.0 0.00 0.00 0.00 65 1018.8
20260502025413 43 247 0.0 1.0 0.00 0.00 0.00 65 1018.7
20260502025213 43 247 0.0 1.0 0.00 0.00 0.00 64 1018.7
20260502025123 43 247 0.0 1.0 0.00 0.00 0.00 65 1018.7
20260502025112 43 247 0.0 1.0 0.00 0.00 0.00 64 1018.7
20260502024908 43 247 0.0 0.0 0.00 0.00 0.00 65 1018.7
20260502024856 43 247 0.0 1.0 0.00 0.00 0.00 65 1018.6
20260502024826 43 247 0.0 0.0 0.00 0.00 0.00 65 1018.7
20260502024413 44 247 0.0 0.0 0.00 0.00 0.00 63 1018.7
20260502024214 44 247 0.0 0.0 0.00 0.00 0.00 63 1018.7
20260502024112 44 247 0.0 0.0 0.00 0.00 0.00 63 1018.7
20260502024014 44 247 0.0 0.0 0.00 0.00 0.00 63 1018.7
20260502023955 44 247 0.0 0.0 0.00 0.00 0.00 63 1018.7
20260502023902 44 247 0.0 0.0 0.00 0.00 0.00 61 1018.6
20260502023826 44 247 0.0 0.0 0.00 0.00 0.00 61 1018.6
20260502023415 44 247 0.0 0.0 0.00 0.00 0.00 61 1018.6
20260502023213 44 247 0.0 0.0 0.00 0.00 0.00 60 1018.6
20260502023112 44 247 0.0 0.0 0.00 0.00 0.00 60 1018.7
20260502023015 44 247 0.0 0.0 0.00 0.00 0.00 60 1018.6
20260502022907 44 247 0.0 1.0 0.00 0.00 0.00 59 1018.7
20260502022856 44 247 0.0 0.0 0.00 0.00 0.00 59 1018.7
20260502022828 44 247 0.0 1.0 0.00 0.00 0.00 59 1018.7
20260502022414 44 247 0.0 1.0 0.00 0.00 0.00 58 1018.6
20260502022315 45 247 0.0 1.0 0.00 0.00 0.00 58 1018.6
20260502022112 45 247 0.0 1.0 0.00 0.00 0.00 58 1018.7
20260502022013 45 247 0.0 1.0 0.00 0.00 0.00 58 1018.6
20260502021907 45 247 0.0 1.0 0.00 0.00 0.00 58 1018.6
20260502021858 45 247 0.0 1.0 0.00 0.00 0.00 58 1018.4
20260502021828 45 247 0.0 1.0 0.00 0.00 0.00 58 1018.6
20260502021413 45 247 0.0 0.0 0.00 0.00 0.00 56 1018.4
20260502021213 46 247 0.0 0.0 0.00 0.00 0.00 55 1018.6
20260502021113 46 247 0.0 0.0 0.00 0.00 0.00 56 1018.4
20260502021013 46 247 0.0 0.0 0.00 0.00 0.00 56 1018.4
20260502020815 47 247 0.0 0.0 0.00 0.00 0.00 53 1018.6
20260502020613 47 247 0.0 1.0 0.00 0.00 0.00 53 1018.3
20260502020413 47 247 0.0 1.0 0.00 0.00 0.00 53 1018.4
20260502020214 47 247 0.0 1.0 0.00 0.00 0.00 52 1018.3
20260502020118 47 247 0.0 1.0 0.00 0.00 0.00 51 1018.3
20260502020014 47 247 0.0 1.0 0.00 0.00 0.00 51 1018.4
20260502015913 47 247 0.0 1.0 0.00 0.00 0.00 51 1018.3
20260502015614 47 247 0.0 1.0 0.00 0.00 0.00 50 1018.3
20260502015413 47 247 0.0 1.0 0.00 0.00 0.00 50 1018.3
20260502015213 48 247 0.0 1.0 0.00 0.00 0.00 48 1018.3
20260502015112 48 247 0.0 1.0 0.00 0.00 0.00 48 1018.3
20260502015013 48 247 0.0 1.0 0.00 0.00 0.00 48 1018.2
20260502014814 48 247 0.0 1.0 0.00 0.00 0.00 48 1018.2
20260502014613 48 247 0.0 1.0 0.00 0.00 0.00 49 1018.2
20260502014413 49 247 0.0 0.0 0.00 0.00 0.00 47 1018.2
20260502014314 49 247 0.0 0.0 0.00 0.00 0.00 47 1018.1
20260502014112 49 247 0.0 0.0 0.00 0.00 0.00 46 1018.1
20260502014013 49 247 0.0 1.0 0.00 0.00 0.00 44 1018.2
20260502013815 49 247 0.0 1.0 0.00 0.00 0.00 44 1018.1
20260502013613 49 247 0.0 1.0 0.00 0.00 0.00 44 1018.1
20260502013424 49 247 0.0 1.0 0.00 0.00 0.00 44 1018.1
20260502013215 49 247 0.0 1.0 0.00 0.00 0.00 44 1018.1
20260502013112 49 247 0.0 1.0 0.00 0.00 0.00 43 1018.1
20260502013013 49 247 0.0 1.0 0.00 0.00 0.00 44 1018.0
20260502012815 50 247 0.0 1.0 0.00 0.00 0.00 44 1018.0
20260502012613 50 247 0.0 2.0 0.00 0.00 0.00 44 1018.0
20260502012413 50 247 0.0 2.0 0.00 0.00 0.00 44 1018.0
20260502012214 50 247 0.0 2.0 0.00 0.00 0.00 44 1018.0
20260502012112 50 247 0.0 2.0 0.00 0.00 0.00 43 1018.1
20260502012013 51 247 0.0 2.0 0.00 0.00 0.00 43 1018.1
20260502011914 51 247 0.0 2.0 0.00 0.00 0.00 43 1018.0
20260502011614 51 247 0.0 2.0 0.00 0.00 0.00 43 1018.0
20260502011413 51 247 0.0 2.0 0.00 0.00 0.00 43 1018.0
20260502011213 51 247 0.0 2.0 0.00 0.00 0.00 44 1018.0
20260502011112 51 247 0.0 3.0 0.00 0.00 0.00 44 1018.0
20260502011013 51 247 0.0 3.0 0.00 0.00 0.00 44 1018.0
20260502010814 51 247 0.0 3.0 0.00 0.00 0.00 41 1018.0
20260502010603 51 247 0.0 3.0 0.00 0.00 0.00 41 1018.0
20260502010412 51 247 0.0 3.0 0.00 0.00 0.00 40 1018.0
20260502010314 51 247 0.0 3.0 0.00 0.00 0.00 41 1018.0
20260502010012 52 247 0.0 3.0 0.00 0.00 0.00 40 1017.8
20260502005814 52 247 0.0 3.0 0.00 0.00 0.00 40 1017.9
20260502005614 52 247 0.0 3.0 0.00 0.00 0.00 40 1018.0
20260502005602 52 247 0.0 3.0 0.00 0.00 0.00 40 1017.9
20260502005413 52 247 0.0 3.0 0.00 0.00 0.00 40 1017.9
20260502005214 52 245 0.0 3.0 0.00 0.00 0.00 43 1018.0
20260502005103 52 247 0.0 3.0 0.00 0.00 0.00 41 1017.9
20260502005013 52 247 0.0 3.0 0.00 0.00 0.00 40 1017.9
20260502004855 52 245 0.0 3.0 0.00 0.00 0.00 41 1017.9
20260502004841 52 245 0.0 3.0 0.00 0.00 0.00 40 1018.0
20260502004413 52 245 0.0 3.0 0.00 0.00 0.00 40 1017.9
20260502004213 52 245 0.0 3.0 0.00 0.00 0.00 40 1018.0
20260502004049 52 245 0.0 3.0 0.00 0.00 0.00 40 1017.8
20260502004014 52 245 0.0 5.0 0.00 0.00 0.00 40 1017.8
20260502003940 53 245 0.0 5.0 0.00 0.00 0.00 44 1018.0
20260502003851 53 245 0.0 5.0 0.00 0.00 0.00 41 1018.0
20260502003811 53 245 0.0 5.0 0.00 0.00 0.00 41 1018.0
20260502003410 53 245 0.0 5.0 0.00 0.00 0.00 41 1018.0
20260502003209 53 245 0.0 5.0 0.00 0.00 0.00 40 1017.9
20260502003046 53 245 0.0 5.0 0.00 0.00 0.00 41 1018.0
20260502003010 53 213 0.0 4.0 0.00 0.00 0.00 39 1018.0
20260502002855 53 243 0.0 3.0 0.00 0.00 0.00 41 1018.0
20260502002836 53 213 0.0 4.0 0.00 0.00 0.00 40 1017.9
20260502002807 53 237 0.0 3.0 0.00 0.00 0.00 41 1018.0
20260502002410 53 243 0.0 4.0 0.00 0.00 0.00 41 1018.0
20260502002308 53 243 0.0 4.0 0.00 0.00 0.00 40 1018.0
20260502002047 53 243 0.0 4.0 0.00 0.00 0.00 40 1018.0
20260502002010 53 243 0.0 4.0 0.00 0.00 0.00 39 1017.9
20260502001812 53 243 0.0 4.0 0.00 0.00 0.00 42 1018.0
20260502001610 53 243 0.0 4.0 0.00 0.00 0.00 40 1017.9
20260502001544 53 245 0.0 4.0 0.00 0.00 0.00 40 1017.9
20260502001410 53 244 0.0 3.0 0.00 0.00 0.00 41 1017.8
20260502001212 53 244 0.0 3.0 0.00 0.00 0.00 42 1017.9
20260502001046 53 250 0.0 2.0 0.00 0.00 0.00 43 1017.9
20260502001013 53 250 0.0 2.0 0.00 0.00 0.00 43 1017.9
20260502000810 53 250 0.0 2.0 0.00 0.00 0.00 43 1017.9
20260502000604 53 250 0.0 2.0 0.00 0.00 0.00 43 1017.8
20260502000532 53 250 0.0 2.0 0.00 0.00 0.00 42 1017.8
20260502000403 53 250 0.0 2.0 0.00 0.00 0.00 40 1017.9
20260502000312 53 250 0.0 3.0 0.00 0.00 0.00 39 1017.9
20260502000031 54 59 0.0 3.0 0.00 0.00 0.00 40 1017.9
20260502000008 54 59 0.0 3.0 0.00 0.00 0.00 40 1017.8
20260501235807 54 59 0.0 3.0 0.00 0.00 0.00 40 1017.8
20260501235558 54 59 0.0 3.0 0.00 0.00 0.00 40 1017.7
20260501235530 54 59 0.0 3.0 0.00 0.00 0.00 40 1017.8
20260501235357 54 59 0.0 3.0 0.00 0.00 0.00 40 1017.8
20260501235155 54 59 0.0 3.0 0.00 0.00 0.00 40 1017.7
20260501235003 54 59 0.0 4.0 0.00 0.00 0.00 39 1017.8
20260501234957 54 59 0.0 4.0 0.00 0.00 0.00 39 1017.8
20260501234755 54 58 0.0 4.0 0.00 0.00 0.00 41 1017.8
20260501234656 54 51 0.0 4.0 0.00 0.00 0.00 41 1017.8
20260501234502 54 51 0.0 4.0 0.00 0.00 0.00 40 1017.8
20260501234356 54 51 0.0 4.0 0.00 0.00 0.00 40 1017.8
20260501234156 54 51 0.0 4.0 0.00 0.00 0.00 38 1017.9
20260501234005 54 69 0.0 3.0 0.00 0.00 0.00 42 1017.8
20260501233952 54 71 0.0 3.0 0.00 0.00 0.00 42 1017.9
20260501233746 53 48 0.0 3.0 0.00 0.00 0.00 42 1017.9
20260501233544 53 48 0.0 3.0 0.00 0.00 0.00 41 1017.9
20260501233502 53 48 0.0 3.0 0.00 0.00 0.00 41 1017.9
20260501233342 53 48 0.0 3.0 0.00 0.00 0.00 41 1017.9
20260501233138 53 48 0.0 4.0 0.00 0.00 0.00 41 1017.9
20260501233032 53 48 0.0 4.0 0.00 0.00 0.00 41 1017.8
20260501233001 53 48 0.0 4.0 0.00 0.00 0.00 41 1017.8
20260501232809 54 48 0.0 7.0 0.00 0.00 0.00 38 1017.8
20260501232755 53 48 0.0 4.0 0.00 0.00 0.00 39 1017.9
20260501232726 53 48 0.0 7.0 0.00 0.00 0.00 38 1017.8
20260501232335 54 41 0.0 7.0 0.00 0.00 0.00 38 1017.9
20260501232131 54 240 0.0 7.0 0.00 0.00 0.00 39 1017.9
20260501232032 55 248 0.0 7.0 0.00 0.00 0.00 38 1017.8
20260501232002 55 248 0.0 7.0 0.00 0.00 0.00 39 1017.9
20260501231804 55 243 0.0 12.0 0.00 0.00 0.00 39 1017.8
20260501231751 55 248 0.0 12.0 0.00 0.00 0.00 37 1017.9
20260501231720 55 228 0.0 12.0 0.00 0.00 0.00 39 1017.8
20260501231326 55 243 0.0 12.0 0.00 0.00 0.00 40 1017.7
20260501231119 55 241 0.0 12.0 0.00 0.00 0.00 38 1017.8
20260501231002 55 209 0.0 12.0 0.00 0.00 0.00 38 1017.8
20260501230918 55 200 0.0 12.0 0.00 0.00 0.00 39 1017.8
20260501230805 55 245 0.0 7.0 0.00 0.00 0.00 39 1017.8
20260501230748 55 226 0.0 7.0 0.00 0.00 0.00 36 1017.9
20260501230717 55 264 0.0 7.0 0.00 0.00 0.00 39 1017.8
20260501230401 55 245 0.0 7.0 0.00 0.00 0.00 39 1017.8
20260501230106 56 248 0.0 7.0 0.00 0.00 0.00 38 1017.9
20260501225959 56 240 0.0 6.0 0.00 0.00 0.00 40 1017.9
20260501225905 56 240 0.0 6.0 0.00 0.00 0.00 38 1017.9
20260501225810 56 226 0.0 5.0 0.00 0.00 0.00 38 1017.9
20260501225749 56 254 0.0 5.0 0.00 0.00 0.00 39 1017.9
20260501225718 56 226 0.0 5.0 0.00 0.00 0.00 38 1017.9
20260501225306 56 250 0.0 5.0 0.00 0.00 0.00 41 1017.9
20260501225100 56 274 0.0 5.0 0.00 0.00 0.00 41 1017.9
20260501225000 56 68 0.0 5.0 0.00 0.00 0.00 39 1017.9
20260501224857 56 68 0.0 5.0 0.00 0.00 0.00 39 1017.8
20260501224753 56 68 0.0 5.0 0.00 0.00 0.00 40 1017.9
20260501224500 55 28 0.0 5.0 0.00 0.00 0.00 38 1017.9
20260501224300 55 28 0.0 5.0 0.00 0.00 0.00 39 1018.0
20260501224058 55 37 0.0 5.0 0.00 0.00 0.00 39 1017.9
20260501223939 55 42 0.0 5.0 0.00 0.00 0.00 38 1017.9
20260501223859 56 209 0.0 6.0 0.00 0.00 0.00 40 1017.9
20260501223656 56 209 0.0 6.0 0.00 0.00 0.00 40 1017.8
20260501223459 55 209 0.0 6.0 0.00 0.00 0.00 39 1017.7
20260501223439 55 209 0.0 6.0 0.00 0.00 0.00 39 1017.8
20260501223352 55 209 0.0 6.0 0.00 0.00 0.00 39 1017.8
20260501223055 55 62 0.0 6.0 0.00 0.00 0.00 37 1017.8
20260501222939 55 48 0.0 6.0 0.00 0.00 0.00 37 1017.9
20260501222855 56 237 0.0 5.0 0.00 0.00 0.00 38 1017.9
20260501222655 56 203 0.0 5.0 0.00 0.00 0.00 38 1018.0
20260501222455 56 254 0.0 5.0 0.00 0.00 0.00 37 1017.9
20260501222440 56 254 0.0 5.0 0.00 0.00 0.00 37 1017.8
20260501222255 56 254 0.0 5.0 0.00 0.00 0.00 38 1017.9
20260501222056 56 78 0.0 5.0 0.00 0.00 0.00 40 1017.9
20260501221939 56 79 0.0 5.0 0.00 0.00 0.00 39 1017.9
20260501221856 55 80 0.0 5.0 0.00 0.00 0.00 38 1017.9
20260501221757 55 73 0.0 5.0 0.00 0.00 0.00 37 1017.9
20260501221640 52 66 0.0 4.0 0.00 0.00 0.00 41 1018.0
20260501221636 52 61 0.0 4.0 0.00 0.00 0.00 41 1018.0
20260501221631 55 351 0.0 5.0 0.00 0.00 0.00 39 1017.9
20260501221609 55 39 0.0 5.0 0.00 0.00 0.00 38 1017.9
20260501221558 55 39 0.0 5.0 0.00 0.00 0.00 39 1017.9
20260501221538 55 25 0.0 5.0 0.00 0.00 0.00 39 1018.0
20260501221510 55 45 0.0 5.0 0.00 0.00 0.00 39 1018.0
20260501221447 54 45 0.0 5.0 0.00 0.00 0.00 43 1017.9
20260501221440 54 45 0.0 5.0 0.00 0.00 0.00 43 1017.9
20260501221411 53 102 0.0 4.0 0.00 0.00 0.00 44 1018.0
20260501221330 52 66 0.0 4.0 0.00 0.00 0.00 44 1018.0
20260501221311 52 72 0.0 4.0 0.00 0.00 0.00 42 1018.0
20260501221242 52 72 0.0 4.0 0.00 0.00 0.00 41 1017.9
20260501221218 52 72 0.0 4.0 0.00 0.00 0.00 42 1018.0
20260501221209 52 72 0.0 4.0 0.00 0.00 0.00 42 1018.0
20260501221140 52 72 0.0 4.0 0.00 0.00 0.00 42 1017.9
20260501221113 52 7 0.0 2.0 0.00 0.00 0.00 43 1018.0
20260501221059 52 7 0.0 4.0 0.00 0.00 0.00 43 1018.0
20260501221038 52 7 0.0 4.0 0.00 0.00 0.00 43 1018.0
20260501221010 52 61 0.0 4.0 0.00 0.00 0.00 43 1017.9
20260501220947 52 61 0.0 4.0 0.00 0.00 0.00 41 1017.9
20260501220938 52 61 0.0 4.0 0.00 0.00 0.00 41 1017.9
20260501220847 52 58 0.0 4.0 0.00 0.00 0.00 41 1017.9
20260501220834 52 65 0.0 4.0 0.00 0.00 0.00 41 1017.9
20260501220814 52 51 0.0 4.0 0.00 0.00 0.00 42 1017.9
20260501220749 53 41 0.0 5.0 0.00 0.00 0.00 41 1018.0
20260501220724 53 38 0.0 5.0 0.00 0.00 0.00 41 1017.9
20260501220714 53 38 0.0 5.0 0.00 0.00 0.00 41 1017.9
20260501220647 53 78 0.0 5.0 0.00 0.00 0.00 41 1017.8
20260501220554 54 78 0.0 5.0 0.00 0.00 0.00 40 1017.9
20260501213100 54 34 0.0 5.0 0.00 0.00 0.00 41 1017.9
20260501212931 54 34 0.0 5.0 0.00 0.00 0.00 41 1017.9
20260501212900 54 34 0.0 5.0 0.00 0.00 0.00 41 1017.9
20260501212659 54 34 0.0 5.0 0.00 0.00 0.00 42 1018.0
20260501212459 54 34 0.0 5.0 0.00 0.00 0.00 41 1018.0
20260501212403 54 55 0.0 5.0 0.00 0.00 0.00 43 1018.0
20260501212300 54 55 0.0 5.0 0.00 0.00 0.00 40 1018.0
20260501212058 54 268 0.0 4.0 0.00 0.00 0.00 36 1017.9
20260501211903 54 268 0.0 4.0 0.00 0.00 0.00 40 1018.0
20260501211855 54 268 0.0 4.0 0.00 0.00 0.00 40 1018.0
20260501211656 53 92 0.0 4.0 0.00 0.00 0.00 39 1018.0
20260501211454 53 79 0.0 7.0 0.00 0.00 0.00 42 1018.0
20260501211401 53 79 0.0 7.0 0.00 0.00 0.00 43 1018.0
20260501211255 52 204 0.0 7.0 0.00 0.00 0.00 45 1018.0
20260501211056 52 245 0.0 7.0 0.00 0.00 0.00 42 1018.0
20260501210901 52 245 0.0 7.0 0.00 0.00 0.00 39 1018.1
20260501210854 52 245 0.0 7.0 0.00 0.00 0.00 39 1018.1
20260501210653 53 250 0.0 7.0 0.00 0.00 0.00 38 1018.1
20260501210548 53 192 0.0 5.0 0.00 0.00 0.00 40 1018.1
20260501210401 53 261 0.0 5.0 0.00 0.00 0.00 40 1018.1
20260501210253 53 258 0.0 5.0 0.00 0.00 0.00 39 1018.1
20260501210045 54 233 0.0 5.0 0.00 0.00 0.00 40 1018.1
20260501205902 54 234 0.0 5.0 0.00 0.00 0.00 38 1018.1
20260501205846 54 248 0.0 5.0 0.00 0.00 0.00 42 1018.1
20260501205657 54 200 0.0 5.0 0.00 0.00 0.00 38 1018.2
20260501205652 54 200 0.0 4.0 0.00 0.00 0.00 38 1018.2
20260501205627 54 200 0.0 5.0 0.00 0.00 0.00 38 1018.1
20260501205241 54 200 0.0 5.0 0.00 0.00 0.00 38 1018.1
20260501205044 54 200 0.0 9.0 0.00 0.00 0.00 38 1018.1
20260501204935 54 94 0.0 9.0 0.00 0.00 0.00 39 1018.1
20260501204846 54 152 0.0 9.0 0.00 0.00 0.00 38 1018.1
20260501204642 55 37 0.0 9.0 0.00 0.00 0.00 39 1018.2
20260501204633 56 62 0.0 9.0 0.00 0.00 0.00 40 1018.2
20260501204606 56 63 0.0 9.0 0.00 0.00 0.00 40 1018.2
20260501204218 56 255 0.0 9.0 0.00 0.00 0.00 44 1018.3
20260501204016 56 234 0.0 7.0 0.00 0.00 0.00 41 1018.1
20260501203841 56 259 0.0 5.0 0.00 0.00 0.00 42 1018.1
20260501203812 56 49 0.0 5.0 0.00 0.00 0.00 44 1018.1
20260501203722 55 59 0.0 6.0 0.00 0.00 0.00 42 1018.2
20260501203626 55 59 0.0 6.0 0.00 0.00 0.00 40 1018.1
20260501203549 55 59 0.0 6.0 0.00 0.00 0.00 40 1018.2
20260501203142 55 51 0.0 6.0 0.00 0.00 0.00 43 1018.3
20260501202937 54 241 0.0 6.0 0.00 0.00 0.00 42 1018.3
20260501202830 53 240 0.0 6.0 0.00 0.00 0.00 41 1018.3
20260501202741 53 244 0.0 6.0 0.00 0.00 0.00 45 1018.2
20260501202638 52 144 0.0 4.0 0.00 0.00 0.00 42 1018.4
20260501202622 53 192 0.0 4.0 0.00 0.00 0.00 42 1018.3
20260501202550 52 144 0.0 4.0 0.00 0.00 0.00 42 1018.4
20260501202133 52 241 0.0 4.0 0.00 0.00 0.00 43 1018.3
20260501202035 54 216 0.0 2.0 0.00 0.00 0.00 41 1018.3
20260501201829 54 216 0.0 7.0 0.00 0.00 0.00 41 1018.3
20260501201730 54 216 0.0 7.0 0.00 0.00 0.00 41 1018.3
20260501201531 54 216 0.0 7.0 0.00 0.00 0.00 41 1018.2
20260501201331 54 216 0.0 7.0 0.00 0.00 0.00 41 1018.3
20260501201129 54 257 0.0 7.0 0.00 0.00 0.00 41 1018.2
20260501200929 54 257 0.0 7.0 0.00 0.00 0.00 38 1018.2
20260501200828 54 251 0.0 7.0 0.00 0.00 0.00 44 1018.3
20260501200729 54 307 0.0 7.0 0.00 0.00 0.00 42 1018.2
20260501200529 54 250 0.0 7.0 0.00 0.00 0.00 44 1018.3
20260501200432 54 259 0.0 7.0 0.00 0.00 0.00 41 1018.3
20260501200330 54 259 0.0 7.0 0.00 0.00 0.00 41 1018.3
20260501200131 54 245 0.0 5.0 0.00 0.00 0.00 44 1018.4
20260501195929 52 233 0.0 9.0 0.00 0.00 0.00 41 1018.3
20260501195827 52 235 0.0 9.0 0.00 0.00 0.00 43 1018.3
20260501195732 52 235 0.0 9.0 0.00 0.00 0.00 43 1018.3
20260501195531 53 58 0.0 9.0 0.00 0.00 0.00 41 1018.3
20260501195330 53 58 0.0 9.0 0.00 0.00 0.00 41 1018.3
20260501195129 54 248 0.0 9.0 0.00 0.00 0.00 38 1018.2
20260501194929 54 62 0.0 7.0 0.00 0.00 0.00 46 1018.3
20260501194829 54 65 0.0 7.0 0.00 0.00 0.00 41 1018.2
20260501194730 54 65 0.0 7.0 0.00 0.00 0.00 41 1018.1
20260501194629 55 87 0.0 6.0 0.00 0.00 0.00 37 1018.2
20260501194329 55 35 0.0 6.0 0.00 0.00 0.00 40 1018.3
20260501194130 55 180 0.0 6.0 0.00 0.00 0.00 41 1018.3
20260501194109 55 106 0.0 6.0 0.00 0.00 0.00 39 1018.2
20260501194056 55 106 0.0 6.0 0.00 0.00 0.00 39 1018.2
20260501193731 55 106 0.0 6.0 0.00 0.00 0.00 39 1018.2
20260501193635 55 38 0.0 6.0 0.00 0.00 0.00 39 1018.4
20260501193618 55 39 0.0 6.0 0.00 0.00 0.00 41 1018.3
20260501193541 55 38 0.0 6.0 0.00 0.00 0.00 39 1018.4
20260501193130 56 37 0.0 5.0 0.00 0.00 0.00 40 1018.4
20260501193030 56 298 0.0 5.0 0.00 0.00 0.00 40 1018.3
20260501192829 56 200 0.0 5.0 0.00 0.00 0.00 47 1018.4
20260501192728 55 195 0.0 5.0 0.00 0.00 0.00 43 1018.3
20260501192634 53 283 0.0 5.0 0.00 0.00 0.00 42 1018.2
20260501192617 55 240 0.0 5.0 0.00 0.00 0.00 44 1018.2
20260501192541 53 283 0.0 5.0 0.00 0.00 0.00 42 1018.2
20260501192130 53 219 0.0 5.0 0.00 0.00 0.00 43 1018.3
20260501191929 54 25 0.0 5.0 0.00 0.00 0.00 40 1018.3
20260501191830 56 13 0.0 4.0 0.00 0.00 0.00 42 1018.3
20260501191731 56 13 0.0 4.0 0.00 0.00 0.00 42 1018.2
20260501191617 55 21 0.0 4.0 0.00 0.00 0.00 41 1018.3
20260501191611 56 13 0.0 4.0 0.00 0.00 0.00 42 1018.2
20260501191538 55 21 0.0 4.0 0.00 0.00 0.00 41 1018.2
20260501191128 56 62 0.0 6.0 0.00 0.00 0.00 40 1018.2
20260501190929 56 63 0.0 9.0 0.00 0.00 0.00 45 1018.3
20260501190811 56 62 0.0 9.0 0.00 0.00 0.00 47 1018.3
20260501190731 55 75 0.0 9.0 0.00 0.00 0.00 43 1018.3
20260501190531 55 75 0.0 9.0 0.00 0.00 0.00 43 1018.3
20260501190504 55 75 0.0 9.0 0.00 0.00 0.00 43 1018.4
20260501190314 55 75 0.0 9.0 0.00 0.00 0.00 43 1018.4
20260501190107 56 245 0.0 9.0 0.00 0.00 0.00 41 1018.4
20260501185908 56 25 0.0 5.0 0.00 0.00 0.00 46 1018.4
20260501185809 56 252 0.0 5.0 0.00 0.00 0.00 40 1018.2
20260501185706 56 214 0.0 5.0 0.00 0.00 0.00 40 1018.3
20260501185609 56 47 0.0 5.0 0.00 0.00 0.00 42 1018.2
20260501185553 56 51 0.0 5.0 0.00 0.00 0.00 44 1018.3
20260501185517 56 47 0.0 5.0 0.00 0.00 0.00 42 1018.2
20260501185105 55 6 0.0 5.0 0.00 0.00 0.00 49 1018.2
20260501185008 55 41 0.0 5.0 0.00 0.00 0.00 49 1018.3
20260501184805 55 41 0.0 5.0 0.00 0.00 0.00 49 1018.4
20260501184706 55 41 0.0 5.0 0.00 0.00 0.00 49 1018.4
20260501184529 53 32 0.0 5.0 0.00 0.00 0.00 46 1018.4
20260501184514 53 38 0.0 5.0 0.00 0.00 0.00 46 1018.4
20260501184444 53 32 0.0 5.0 0.00 0.00 0.00 46 1018.4
20260501184028 52 93 0.0 9.0 0.00 0.00 0.00 41 1018.3
20260501183827 53 42 0.0 9.0 0.00 0.00 0.00 41 1018.4
20260501183730 53 37 0.0 9.0 0.00 0.00 0.00 38 1018.3
20260501183624 54 37 0.0 9.0 0.00 0.00 0.00 39 1018.4
20260501183526 55 38 0.0 9.0 0.00 0.00 0.00 44 1018.3
20260501183509 55 16 0.0 9.0 0.00 0.00 0.00 42 1018.4
20260501183225 55 52 0.0 9.0 0.00 0.00 0.00 44 1018.2
20260501183020 54 35 0.0 9.0 0.00 0.00 0.00 44 1018.4
20260501182818 54 69 0.0 7.0 0.00 0.00 0.00 41 1018.4
20260501182729 54 54 0.0 7.0 0.00 0.00 0.00 45 1018.4
20260501182617 53 23 0.0 7.0 0.00 0.00 0.00 48 1018.4
20260501182530 51 245 0.0 6.0 0.00 0.00 0.00 41 1018.6
20260501182510 52 14 0.0 4.0 0.00 0.00 0.00 45 1018.4
20260501182216 51 245 0.0 6.0 0.00 0.00 0.00 45 1018.6
20260501182013 51 259 0.0 6.0 0.00 0.00 0.00 44 1018.6
20260501181815 52 259 0.0 6.0 0.00 0.00 0.00 45 1018.6
20260501181729 51 259 0.0 6.0 0.00 0.00 0.00 47 1018.6
20260501181704 51 254 0.0 6.0 0.00 0.00 0.00 43 1018.3
20260501181406 52 238 0.0 6.0 0.00 0.00 0.00 44 1018.4
20260501181227 52 220 0.0 5.0 0.00 0.00 0.00 42 1018.4
20260501181205 52 227 0.0 5.0 0.00 0.00 0.00 41 1018.4
20260501181035 53 76 0.0 5.0 0.00 0.00 0.00 46 1018.7
20260501181030 53 41 0.0 5.0 0.00 0.00 0.00 40 1018.7
20260501180956 53 49 0.0 5.0 0.00 0.00 0.00 45 1018.7
20260501180604 52 16 0.0 5.0 0.00 0.00 0.00 46 1018.7
20260501180403 52 10 0.0 5.0 0.00 0.00 0.00 45 1018.7
20260501180229 52 323 0.0 5.0 0.00 0.00 0.00 44 1018.6
20260501180203 52 323 0.0 5.0 0.00 0.00 0.00 44 1018.7
20260501180115 52 323 0.0 5.0 0.00 0.00 0.00 44 1018.6
20260501180021 53 274 0.0 10.0 0.00 0.00 0.00 44 1018.7
20260501175940 53 274 0.0 10.0 0.00 0.00 0.00 44 1018.6
20260501175533 54 231 0.0 10.0 0.00 0.00 0.00 46 1018.6
20260501175332 53 24 0.0 10.0 0.00 0.00 0.00 46 1018.6
20260501175215 53 41 0.0 10.0 0.00 0.00 0.00 42 1018.6
20260501175132 52 109 0.0 10.0 0.00 0.00 0.00 41 1018.6
20260501175012 52 3 0.0 5.0 0.00 0.00 0.00 43 1018.7
20260501175004 52 109 0.0 10.0 0.00 0.00 0.00 41 1018.6
20260501174936 52 3 0.0 5.0 0.00 0.00 0.00 42 1018.6
20260501174532 52 293 0.0 5.0 0.00 0.00 0.00 46 1018.8
20260501174331 52 32 0.0 5.0 0.00 0.00 0.00 46 1018.7
20260501174216 52 305 0.0 5.0 0.00 0.00 0.00 43 1018.7
20260501174133 52 305 0.0 5.0 0.00 0.00 0.00 47 1018.7
20260501174128 52 269 0.0 5.0 0.00 0.00 0.00 44 1018.8
20260501173727 52 237 0.0 5.0 0.00 0.00 0.00 45 1018.7
20260501173711 52 230 0.0 5.0 0.00 0.00 0.00 45 1018.9
20260501173528 52 27 0.0 5.0 0.00 0.00 0.00 45 1018.8
20260501173327 52 27 0.0 5.0 0.00 0.00 0.00 45 1018.7
20260501173210 52 0 0.0 5.0 0.00 0.00 0.00 44 1018.7
20260501173127 52 255 0.0 5.0 0.00 0.00 0.00 43 1018.7
20260501173007 51 248 0.0 6.0 0.00 0.00 0.00 44 1018.8
20260501172953 52 120 0.0 5.0 0.00 0.00 0.00 44 1018.7
20260501172927 51 248 0.0 6.0 0.00 0.00 0.00 44 1018.8
20260501172614 51 248 0.0 6.0 0.00 0.00 0.00 44 1018.8
20260501172306 51 248 0.0 6.0 0.00 0.00 0.00 44 1018.6
20260501172207 51 248 0.0 6.0 0.00 0.00 0.00 44 1018.7
20260501172104 51 248 0.0 6.0 0.00 0.00 0.00 44 1018.8
20260501172000 50 206 0.0 5.0 0.00 0.00 0.00 45 1018.7
20260501171945 51 250 0.0 6.0 0.00 0.00 0.00 49 1018.8
20260501171918 50 206 0.0 5.0 0.00 0.00 0.00 45 1018.7
20260501171504 50 244 0.0 4.0 0.00 0.00 0.00 45 1018.7
20260501171304 50 58 0.0 9.0 0.00 0.00 0.00 45 1018.7
20260501171201 51 58 0.0 9.0 0.00 0.00 0.00 44 1018.7
20260501171049 51 230 0.0 9.0 0.00 0.00 0.00 44 1018.7
20260501170953 53 58 0.0 9.0 0.00 0.00 0.00 44 1018.7
20260501170937 52 23 0.0 9.0 0.00 0.00 0.00 44 1018.7
20260501170643 53 58 0.0 9.0 0.00 0.00 0.00 44 1018.7
20260501170442 52 54 0.0 9.0 0.00 0.00 0.00 45 1018.7
20260501170242 52 31 0.0 6.0 0.00 0.00 0.00 45 1018.8
20260501170156 52 351 0.0 6.0 0.00 0.00 0.00 47 1018.8
20260501170048 52 247 0.0 6.0 0.00 0.00 0.00 51 1018.7
20260501165844 50 94 0.0 9.0 0.00 0.00 0.00 45 1018.7
20260501165738 50 34 0.0 9.0 0.00 0.00 0.00 47 1018.7
20260501165641 50 89 0.0 9.0 0.00 0.00 0.00 47 1018.7
20260501165433 50 37 0.0 9.0 0.00 0.00 0.00 44 1018.7
20260501165227 51 51 0.0 9.0 0.00 0.00 0.00 46 1018.7
20260501165138 51 58 0.0 9.0 0.00 0.00 0.00 41 1018.7
20260501165028 51 125 0.0 7.0 0.00 0.00 0.00 44 1018.7
20260501164927 51 93 0.0 5.0 0.00 0.00 0.00 43 1018.7
20260501164911 51 56 0.0 7.0 0.00 0.00 0.00 46 1018.8
20260501164625 51 79 0.0 5.0 0.00 0.00 0.00 43 1018.7
20260501164422 51 255 0.0 5.0 0.00 0.00 0.00 46 1018.7
20260501164220 51 55 0.0 12.0 0.00 0.00 0.00 48 1018.7
20260501164135 51 55 0.0 12.0 0.00 0.00 0.00 45 1018.8
20260501164116 51 307 0.0 12.0 0.00 0.00 0.00 46 1018.8
20260501163924 50 8 0.0 12.0 0.00 0.00 0.00 46 1018.9
20260501163909 51 71 0.0 12.0 0.00 0.00 0.00 50 1018.8
20260501163614 50 10 0.0 12.0 0.00 0.00 0.00 49 1018.9
20260501163412 50 45 0.0 12.0 0.00 0.00 0.00 45 1018.8
20260501163212 51 7 0.0 10.0 0.00 0.00 0.00 47 1018.7
20260501163135 52 45 0.0 10.0 0.00 0.00 0.00 47 1018.7
20260501163025 52 34 0.0 10.0 0.00 0.00 0.00 47 1018.7
20260501162923 52 30 0.0 4.0 0.00 0.00 0.00 47 1018.7
20260501162905 52 34 0.0 7.0 0.00 0.00 0.00 45 1018.7
20260501162614 52 30 0.0 4.0 0.00 0.00 0.00 47 1018.7
20260501162413 52 48 0.0 5.0 0.00 0.00 0.00 48 1018.7
20260501162213 51 49 0.0 5.0 0.00 0.00 0.00 45 1018.7
20260501162133 51 49 0.0 5.0 0.00 0.00 0.00 45 1018.7
20260501162014 51 55 0.0 5.0 0.00 0.00 0.00 48 1018.8
20260501161812 51 243 0.0 5.0 0.00 0.00 0.00 43 1018.8
20260501161712 52 130 0.0 5.0 0.00 0.00 0.00 48 1018.9
20260501161615 52 130 0.0 5.0 0.00 0.00 0.00 45 1018.9
20260501161412 51 276 0.0 9.0 0.00 0.00 0.00 45 1018.7
20260501161212 51 197 0.0 9.0 0.00 0.00 0.00 48 1018.8
20260501161113 51 206 0.0 9.0 0.00 0.00 0.00 52 1018.7
20260501161014 51 61 0.0 9.0 0.00 0.00 0.00 50 1018.7
20260501160813 50 82 0.0 9.0 0.00 0.00 0.00 50 1018.7
20260501160618 50 73 0.0 9.0 0.00 0.00 0.00 47 1018.7
20260501160613 50 102 0.0 9.0 0.00 0.00 0.00 47 1018.7
20260501160414 50 45 0.0 7.0 0.00 0.00 0.00 51 1018.7
20260501160211 50 20 0.0 9.0 0.00 0.00 0.00 48 1018.7
20260501160123 49 69 0.0 9.0 0.00 0.00 0.00 47 1018.8
20260501160113 49 20 0.0 9.0 0.00 0.00 0.00 51 1018.8
20260501155812 49 44 0.0 13.0 0.00 0.00 0.00 50 1018.8
20260501155607 49 56 0.0 13.0 0.00 0.00 0.00 50 1018.8
20260501155408 49 58 0.0 13.0 0.00 0.00 0.00 48 1018.8
20260501155206 48 47 0.0 13.0 0.00 0.00 0.00 49 1018.8
20260501155111 48 71 0.0 13.0 0.00 0.00 0.00 47 1018.8
20260501155006 48 94 0.0 13.0 0.00 0.00 0.00 47 1018.7
20260501154804 49 87 0.0 7.0 0.00 0.00 0.00 50 1018.8
20260501154615 48 69 0.0 12.0 0.00 0.00 0.00 49 1018.7
20260501154604 48 55 0.0 12.0 0.00 0.00 0.00 47 1018.8
20260501154405 47 78 0.0 12.0 0.00 0.00 0.00 49 1018.8
20260501154235 47 92 0.0 12.0 0.00 0.00 0.00 49 1018.8
20260501154111 47 87 0.0 12.0 0.00 0.00 0.00 49 1018.8
20260501153934 47 82 0.0 12.0 0.00 0.00 0.00 48 1018.9
20260501153900 48 72 0.0 9.0 0.00 0.00 0.00 52 1018.8
20260501153842 47 96 0.0 9.0 0.00 0.00 0.00 47 1018.7
20260501153537 48 72 0.0 9.0 0.00 0.00 0.00 52 1018.8
20260501153315 48 66 0.0 7.0 0.00 0.00 0.00 49 1018.8
20260501153112 48 79 0.0 6.0 0.00 0.00 0.00 49 1018.8
20260501152915 48 0 0.0 10.0 0.00 0.00 0.00 51 1018.9
20260501152906 48 30 0.0 10.0 0.00 0.00 0.00 49 1018.8
20260501152900 48 83 0.0 10.0 0.00 0.00 0.00 52 1018.8
20260501152840 48 55 0.0 10.0 0.00 0.00 0.00 51 1018.8
20260501152315 47 61 0.0 10.0 0.00 0.00 0.00 51 1018.7
20260501152114 47 87 0.0 10.0 0.00 0.00 0.00 50 1018.7
20260501151915 48 0 0.0 7.0 0.00 0.00 0.00 50 1018.7
20260501151851 48 0 0.0 7.0 0.00 0.00 0.00 50 1018.7
20260501151838 48 0 0.0 7.0 0.00 0.00 0.00 50 1018.7
20260501151516 48 0 0.0 7.0 0.00 0.00 0.00 51 1018.8
20260501151315 48 38 0.0 7.0 0.00 0.00 0.00 51 1018.8
20260501151115 48 111 0.0 7.0 0.00 0.00 0.00 50 1018.7
20260501151020 49 37 0.0 6.0 0.00 0.00 0.00 51 1018.7
20260501150915 49 71 0.0 5.0 0.00 0.00 0.00 50 1018.7
20260501150904 49 79 0.0 5.0 0.00 0.00 0.00 50 1018.7
20260501150842 49 73 0.0 5.0 0.00 0.00 0.00 52 1018.7